sat.trackr.live / text

‹ back to catalog

STARLINK-35156

NORAD 65607 · 2025-207R

PAYLOAD ACTIVE UNKNOWN

§ Identity

Operator
Country
US
Launch date
2025-09-13
Launch site
AFWTR
Launch vehicle
Mass (kg)
RCS (m²)

Purposes: comms

External: N2YO · Heavens-Above · Gunter

§ Orbital elements

Epoch: 2026-05-25T02:27:55.254240Z

Period
95.64 min
Inclination
97.4469°
Eccentricity
0.0002997
Mean motion
15.05659572 rev/d
Perigee alt
547.4 km
Apogee alt
551.6 km
Semi-major
6,927.6 km
B*
3.2949e-4
RAAN
213.6836°
Arg perigee
142.7955°
Mean anomaly
217.3481°
Rev number
3,976

§ Raw data

STARLINK-351561 65607U 25207R   26145.10272285  .00004700  00000+0  32949-3 0  99952 65607  97.4469 213.6836 0002997 142.7955 217.3481 15.05659572 39760

JSON: /api/v1/satellites/65607 · /tle

For live sub-satellite position, see the globe view (requires WebGL).

§ Visibility from observer

Set your observer location to see the next 7 days of passes ≥ 10°. The values pass through the URL so the page stays shareable.

No JS? Fill the form by hand. The geolocation button needs JavaScript.